STARLINK-2624 (48358 NORAD) Tracking and Keplerian Element Data

This shows tracking and keplerian element data for the satellite.

Feedback or suggestion? Click here.




ElementValue
Catalog48358
NameSTARLINK-2624
Epoch Orbit1322
Epoch Day210.83196397
Epoch Year2021
RAAN0.7769
Inclination53.053
Eccentricity0.0001311
Argument of Perigee113.8325
Mean Anonmoly246.2802
Mean Motion15.0639485
Decay Rate1.234E-05
L11 48358U 21038F 21210.83196397 .00001234 00000-0 10171-3 0 9997
L22 48358 53.0530 0.7769 0001311 113.8325 246.2802 15.06394850 13227

Live tracking and technical data element details for STARLINK-2624 (NORAD 48358). STARLINK-2624 can be tracked NOW for your location showing map with azimuth and elevation plus other details from your city location.

Track the satellite on the map from your city or location and see movement details for azimuth, elevation, latitude, longitude, range, height, and movement on the map or in text.







IsCatalogInMostPopularTable: catalog: 48358, numindb: 25
Update: records affected: 1



GetName: 48358 STARLINK-2624

Hit Count: updated at: Sat, 31 Jul 2021 14:18:43 GMT